CAPE
954 1044 1220 1091 1414 1596 1617 1865 1975 2018 2217 2191 2213 2230 2333 2384 2463 2448 2391 2212 2316 2480 2360 2563 2849 2836 2425 2116 2009 1776 1648 1518 1685 2142 2294 2315 2672 2679 2423 2421 2192 2587 1748
1127 1257 1333 1211 1412 1239 1782 1660 1808 2038 2149 2195 2166 2210 2298 2323 2420 2474 2395 1849 2169 2451 2469 2725 2818 2743 3031 3137 2743 2689 2388 2871 2220 2490 2564 2222 2839 2315 2540 2812 2250 1777 1820
1222 999 956 1004 1104 1223 1335 1993 1996 2065 2151 1952 2025 2126 2195 2202 2284 2349 2115 1610 2051 2348 2629 2807 2778 2899 3004 3255 3352 2181 1667 2586 2421 2303 2325 2002 2076 2407 2574 2384 2378 2531 1594
1144 825 1167 904 1111 1144 1872 2239 2458 2463 2242 2277 2208 2323 2374 2354 2311 2469 2486 2812 2862 2659 2667 2785 2668 2889 2953 3145 3150 3346 3350 2857 3274 2586 2001 2120 1797 2251 2329 2028 1703 936 1540
1255 1082 1331 1389 1413 1605 1887 2124 2277 2668 2514 2629 2663 2639 2640 2586 2148 2534 2938 2923 2961 2882 2653 2755 2614 2315 2029 1933 2774 2907 3282 2780 2446 2728 1956 2012 1528 1616 2186 1574 1699 1482 1855
1210 1068 1426 1545 1566 1807 2006 2199 2557 2607 2880 3287 3053 2536 2756 2293 1688 1699 1953 2533 2580 2940 2311 2429 2201 1707 1621 1658 1568 1318 1145 2508 2499 1974 1768 1860 2268 2334 1685 1312 1242 1407 1286
1044 1224 688 1581 1348 1280 1816 1843 2434 2623 2724 2936 3098 2811 2357 2686 1647 1396 1301 2165 2407 2374 2197 2277 1544 911 1598 1950 1297 1269 1168 1007 884 1689 2288 2244 2303 2531 2436 1919 2509 1965 1843
1274 1253 1258 1246 1302 1078 1243 1804 2067 1948 2436 2608 2592 2935 2979 2331 1382 1259 1062 1455 2012 2033 1786 1844 2174 2026 1673 982 705 485 629 820 1092 1392 1233 1334 1773 2214 2568 1927 2070 1782 1664
1163 1430 1772 1996 1397 1069 1160 1356 1766 1911 1785 2169 1786 2008 1980 1968 1056 964 964 963 1359 1718 1814 1703 1515 977 309 184 119 220 345 345 179 259 31 38 50 85 96 174 490 877 781
1354 1680 1602 1412 1246 1359 1288 1489 1701 1790 1556 1360 1106 1439 1253 1421 596 646 809 1618 1739 1873 1947 1314 662 371 148 117 11 24 44 99 97 19 1 11 31 85 113 86 163 387 616
622 909 958 885 831 870 730 629 574 426 478 381 413 674 931 1076 513 199 297 761 883 1011 762 646 465 242 68 25 5 9 47 2 1 6 0 4 33 295 468 315 148 335 299
799 800 605 512 497 532 411 297 112 68 74 77 86 89 74 83 90 11 13 17 15 89 80 112 52 29 2 8 38 16 5 1 0 0 1 24 89 115 81 88 162 229 454
422 555 504 267 73 28 49 163 133 21 29 22 28 76 83 79 70 1 0 4 2 46 52 35 46 0 9 19 24 14 7 1 27 2 11 12 9 21 32 55 75 139 196
178 37 113 64 2 0 16 316 212 83 117 45 92 280 250 99 107 28 0 1 7 8 57 49 67 56 29 20 60 36 35 101 67 22 16 0 0 0 26 34 52 147 84
73 105 103 115 24 13 62 244 272 191 147 200 311 251 238 255 258 56 48 114 38 12 68 31 13 8 14 37 94 150 50 1 0 0 0 0 0 0 0 14 36 76 76
289 169 120 128 123 58 169 194 151 155 194 201 226 213 247 169 106 69 67 95 153 62 62 60 12 8 7 0 0 0 0 0 0 0 3 2 3 0 0 0 2 9 48
164 110 78 75 39 38 70 84 60 52 41 112 105 113 180 204 221 221 210 290 184 134 88 73 34 0 0 0 0 5 7 3 0 1 0 0 0 5 6 6 1 0 1
140 129 120 138 54 38 62 69 59 98 130 84 30 41 53 29 42 28 30 34 34 37 29 0 0 0 0 0 0 0 0 1 0 0 0 0 0 0 0 5 8 6 0
2 1 10 8 24 24 41 85 64 42 18 7 9 5 2 13 0 0 0 0 3 4 0 0 0 0 0 0 0 0 1 0 0 0 0 0 0 0 0 1 2 0 0
0 0 0 0 0 0 0 0 0 0 0 0 0 0 0 0 0 0 0 0 0 0 0 0 0 0 0 0 0 0 0 0 0 0 0 0 0 0 0 0 0 0 0
0 0 0 0 0 0 0 0 0 0 0 0 0 0 0 0 0 0 0 0 0 0 0 0 2 0 0 0 0 0 0 0 0 0 0 0 0 0 0 0 0 0 0
0 0 0 0 0 0 0 0 0 0 0 0 0 0 0 0 0 0 0 0 0 0 0 0 35 8 0 0 0 0 0 0 0 0 0 0 0 0 0 0 0 0 0
0 0 0 0 0 0 0 0 0 0 0 0 0 0 0 0 0 0 0 0 0 0 8 18 47 120 44 5 0 0 0 0 0 0 0 0 0 0 0 0 0 0 0
0 0 0 0 0 0 0 0 0 0 0 0 0 0 0 0 0 0 0 0 0 1 3 15 27 64 220 122 44 20 0 0 0 0 0 0 0 0 0 0 0 0 0
0 0 0 0 0 0 0 0 0 0 0 0 0 0 0 0 0 0 0 0 0 0 0 0 10 56 141 307 246 121 51 16 1 0 0 0 0 0 0 0 0 0 0
0 0 0 0 0 0 0 0 0 0 0 0 0 0 0 0 0 0 0 0 0 0 0 0 1 3 18 62 160 197 131 90 56 39 22 3 0 0 0 0 0 0 0
CIN
-119 -103 -74 -66 -40 -29 -22 -25 -27 -32 -33 -36 -34 -27 -22 -20 -21 -20 -18 -15 -13 -15 -9 -8 -1 -0 -0 -0 -0 -4 -6 -4 -0 -1 -0 -2 -2 -1 -8 -10 -12 -5 -0
-161 -141 -110 -88 -46 -33 -19 -22 -28 -27 -32 -40 -36 -39 -33 -33 -30 -24 -17 -12 -13 -12 -12 -6 -0 -0 -0 -0 -0 -0 -0 -0 -0 -0 -0 -0 -0 -3 -1 -8 -11 -14 -23
-165 -171 -140 -112 -81 -52 -29 -7 -17 -21 -22 -29 -40 -46 -39 -47 -38 -43 -47 -74 -24 -16 -11 -8 -5 -0 -0 -0 -1 -0 -0 -0 -0 -0 -0 -0 -0 -0 -0 -7 -13 -4 -30
-178 -185 -137 -143 -107 -81 -30 -8 -6 -10 -17 -24 -29 -37 -33 -37 -42 -39 -39 -30 -25 -26 -22 -16 -12 -6 -5 -5 -1 -0 -0 -0 -0 -0 -0 -0 -0 -0 -0 -1 -16 -31 -27
-141 -164 -157 -147 -120 -67 -38 -19 -9 -2 -4 -9 -17 -24 -23 -22 -20 -29 -26 -27 -31 -27 -17 -13 -4 -16 -23 -27 -15 -1 -0 -0 -0 -0 -0 -0 -0 -0 -0 -0 -2 -19 -13
-128 -165 -131 -105 -101 -97 -62 -35 -4 -3 -1 -0 -4 -14 -14 -11 -20 -42 -48 -12 -22 -11 -3 -3 -1 -12 -11 -21 -17 -31 -36 -4 -0 -0 -0 -0 -0 -0 -0 -0 -0 -0 -11
-160 -93 -139 -50 -93 -114 -60 -31 -13 -3 -1 -0 -1 -6 -10 -4 -29 -37 -57 -42 -9 -1 -0 -1 -0 -0 -13 -3 -12 -27 -33 -37 -35 -9 -0 -0 -0 -0 -0 -0 -0 -0 -0
-78 -30 -15 -28 -33 -68 -47 -20 -12 -10 -1 -1 -0 -0 -0 -7 -24 -40 -40 -43 -12 -8 -4 -3 -2 -4 -8 -36 -40 -66 -38 -22 -1 -1 -0 -0 -0 -0 -0 -0 -0 -0 -6
-60 -14 -0 -0 -13 -48 -30 -34 -14 -1 -17 -4 -6 -2 -3 -6 -61 -64 -59 -48 -27 -15 -12 -22 -26 -40 -49 -38 -104 -93 -58 -60 -69 -32 -66 -23 -23 -41 -56 -42 -36 -10 -39
-1 -1 -2 -19 -8 -7 -11 -2 -0 -0 -0 -15 -38 -28 -55 -51 -130 -129 -108 -49 -38 -24 -6 -16 -26 -26 -43 -23 -75 -167 -178 -135 -93 -104 -0 -19 -29 -31 -55 -46 -62 -37 -28
-30 -0 -0 -1 -1 -43 -7 -20 -18 -23 -22 -26 -23 -29 -47 -43 -86 -152 -178 -82 -49 -21 -12 -23 -37 -19 -13 -89 -23 -163 -196 -0 -0 -0 -0 -2 -63 -31 -12 -36 -57 -33 -43
-67 -0 -1 -0 -4 -0 -20 -0 -118 -10 -34 -54 -8 -7 -10 -81 -36 -62 -157 -175 -160 -79 -31 -75 -86 -65 -87 -50 -42 -93 -167 -0 -0 -0 -7 -23 -21 -40 -54 -43 -90 -65 -20
-31 -5 -0 -0 -10 -50 -26 -0 -0 -12 -30 -61 -133 -104 -38 -30 -36 -24 -1 -59 -0 -86 -0 -19 -36 -0 -86 -62 -184 -266 -209 -18 -65 -5 -41 -17 -7 -34 -47 -60 -56 -50 -51
-4 -42 -77 -85 -5 -0 -16 -0 -0 -38 -47 -102 -66 -0 -2 -32 -19 -129 -0 -40 -3 -118 -40 -73 -60 -0 -94 -200 -196 -105 -142 -67 -55 -64 -37 -0 -0 -0 -37 -43 -50 -103 -84
-19 -5 -19 -18 -0 -0 -2 -0 -5 -4 -6 -8 -5 -27 -41 -5 -7 -145 -164 -71 -141 -108 -28 -61 -103 -21 -130 -128 -80 -38 -42 -0 -0 -0 -0 -0 -0 -0 -0 -35 -70 -46 -43
-0 -1 -0 -0 -9 -3 -0 -4 -17 -13 -18 -15 -19 -29 -12 -8 -33 -80 -110 -48 -5 -102 -92 -77 -239 -198 -50 -0 -0 -0 -0 -0 -0 -0 -0 -0 -0 -0 -0 -0 -0 -0 -10
-0 -2 -10 -5 -21 -31 -23 -8 -20 -28 -19 -16 -29 -37 -18 -0 -0 -0 -0 -0 -9 -22 -47 -50 -63 -1 -0 -0 -0 -0 -0 -0 -0 -0 -0 -0 -0 -0 -0 -0 -0 -0 -0
-0 -0 -0 -0 -1 -2 -8 -8 -8 -17 -0 -8 -34 -20 -8 -9 -11 -14 -36 -33 -32 -40 -36 -11 -5 -0 -0 -0 -0 -0 -0 -0 -0 -0 -0 -0 -0 -0 -0 -0 -0 -0 -0
-15 -4 -6 -6 -15 -11 -1 -0 -1 -0 -8 -6 -31 -28 -19 -21 -0 -0 -0 -0 -11 -6 -0 -0 -0 -0 -0 -0 -0 -0 -0 -0 -0 -0 -0 -0 -0 -0 -0 -0 -0 -0 -0
-0 -0 -0 -0 -0 -0 -0 -0 -0 -0 -0 -0 -0 -0 -0 -0 -0 -40 -0 -0 -0 -0 -0 -0 -0 -0 -0 -0 -0 -0 -0 -0 -0 -0 -0 -0 -0 -0 -0 -0 -0 -0 -0
-0 -0 -0 -0 -0 -0 -0 -0 -0 -0 -0 -0 -0 -0 -0 -0 -0 -0 -0 -0 -0 -0 -0 -0 -0 -0 -0 -0 -0 -0 -0 -0 -0 -0 -0 -0 -0 -0 -0 -0 -0 -0 -0
-0 -0 -0 -0 -0 -0 -0 -0 -0 -0 -0 -0 -0 -0 -0 -0 -0 -0 -0 -0 -0 -0 -0 -0 -4 -2 -0 -0 -0 -0 -0 -0 -0 -0 -0 -0 -0 -0 -0 -0 -0 -0 -0
-0 -0 -0 -0 -0 -0 -0 -0 -0 -0 -0 -0 -0 -0 -0 -0 -0 -0 -0 -0 -0 -0 -37 -38 -16 -3 -14 -20 -0 -0 -0 -0 -0 -0 -0 -0 -0 -0 -0 -0 -0 -0 -0
-0 -0 -0 -0 -0 -0 -0 -0 -0 -0 -0 -0 -0 -0 -0 -0 -0 -0 -0 -0 -0 -0 -1 -15 -40 -17 -1 -26 -38 -49 -0 -0 -0 -0 -0 -0 -0 -0 -0 -0 -0 -0 -0
-0 -0 -0 -0 -0 -0 -0 -0 -0 -0 -0 -0 -0 -0 -0 -0 -0 -0 -0 -0 -0 -0 -0 -0 -5 -61 -44 -16 -17 -27 -45 -22 -2 -0 -0 -0 -0 -0 -0 -0 -0 -0 -0
-0 -0 -0 -0 -0 -0 -0 -0 -0 -0 -0 -0 -0 -0 -0 -0 -0 -0 -0 -0 -0 -0 -0 -0 -1 -60 -59 -41 -40 -62 -51 -36 -21 -12 -11 -5 -0 -0 -0 -0 -0 -0 -0
Wind_Speed
21 21 20 18 17 20 20 19 18 18 17 16 17 18 15 14 14 14 13 15 16 19 21 20 20 21 20 20 21 22 23 25 20 18 20 21 22 24 25 26 26 24 24
21 25 23 22 20 18 19 19 21 21 21 19 19 18 19 16 16 17 15 16 15 16 18 19 20 21 19 21 22 23 25 27 25 17 19 19 20 22 24 25 27 27 24
25 23 23 24 23 19 19 22 23 22 21 21 22 20 20 20 20 19 21 19 17 16 19 20 22 22 21 24 25 22 23 26 25 22 17 20 22 23 25 27 26 29 28
28 26 24 20 23 24 25 25 25 26 26 25 24 25 25 25 23 23 23 23 22 24 25 25 24 26 26 23 25 24 26 26 27 25 21 22 23 26 26 25 23 29 29
29 28 25 25 26 25 27 28 30 31 30 31 30 28 29 31 30 28 29 29 29 28 28 27 27 27 28 28 29 25 26 26 25 26 24 24 21 26 27 24 26 24 22
35 31 30 33 33 31 28 28 31 28 28 30 28 27 29 31 33 36 31 30 30 31 29 27 28 30 28 28 26 24 24 25 24 24 23 27 24 27 25 21 24 26 21
37 38 41 34 38 37 35 34 31 31 32 28 27 27 26 26 29 32 32 29 29 28 28 28 26 29 34 26 25 27 25 27 27 23 22 25 25 28 26 26 29 27 22
36 34 41 40 41 44 44 40 38 38 35 34 33 31 32 30 33 34 32 30 28 27 26 28 31 31 33 32 27 22 19 19 24 28 31 21 20 23 23 25 17 18 15
51 49 43 40 45 46 46 43 43 42 40 40 35 34 34 33 39 36 39 33 28 25 32 37 38 33 42 39 29 25 23 19 27 37 nan nan nan nan nan 24 26 26 21
66 61 42 48 49 47 46 51 48 51 50 51 46 42 41 38 38 40 41 37 32 34 36 40 40 35 41 44 nan nan nan nan nan nan nan nan nan nan 25 nan 23 19 27
62 68 64 72 62 59 52 53 52 51 53 51 49 44 44 39 35 36 44 35 41 38 44 50 41 39 nan nan nan nan nan nan nan nan nan nan nan 20 20 15 19 17 21
59 61 65 60 58 67 58 55 43 nan nan nan nan nan nan nan nan nan nan nan nan nan nan 30 nan nan nan nan nan nan nan nan nan nan nan nan nan 19 nan nan 14 19 20
43 48 54 52 nan nan nan 57 44 nan nan nan nan nan nan nan nan nan nan nan nan nan nan nan nan nan nan nan nan nan nan nan nan nan nan nan nan nan nan nan nan 10 14
47 nan 34 nan nan nan nan 57 36 nan 54 nan nan 34 40 nan 17 nan nan nan nan nan nan nan nan nan nan nan nan nan nan 29 nan nan nan nan nan nan nan nan nan 14 nan
nan 51 50 48 nan nan nan 29 38 54 48 41 32 23 10 11 11 nan nan 3 nan nan nan nan nan nan nan nan nan 33 nan nan nan nan nan nan nan nan nan nan nan nan nan
40 36 45 52 52 nan 30 26 37 24 24 20 20 15 12 12 20 nan nan nan 27 nan nan nan nan nan nan nan nan nan nan nan nan nan nan nan nan nan nan nan nan nan nan
44 40 nan nan nan nan nan nan nan nan nan 28 34 36 33 32 26 32 39 41 40 36 nan nan nan nan nan nan nan nan nan nan nan nan nan nan nan nan nan nan nan nan nan
43 42 33 34 nan nan nan nan nan nan 23 nan nan nan nan nan nan nan nan nan nan nan nan nan nan nan nan nan nan nan nan nan nan nan nan nan nan nan nan nan nan nan nan
nan nan nan nan nan nan nan nan nan nan nan nan nan nan nan nan nan nan nan nan nan nan nan nan nan nan nan nan nan nan nan nan nan nan nan nan nan nan nan nan nan nan nan
nan nan nan nan nan nan nan nan nan nan nan nan nan nan nan nan nan nan nan nan nan nan nan nan nan nan nan nan nan nan nan nan nan nan nan nan nan nan nan nan nan nan nan
nan nan nan nan nan nan nan nan nan nan nan nan nan nan nan nan nan nan nan nan nan nan nan nan nan nan nan nan nan nan nan nan nan nan nan nan nan nan nan nan nan nan nan
nan nan nan nan nan nan nan nan nan nan nan nan nan nan nan nan nan nan nan nan nan nan nan nan nan nan nan nan nan nan nan nan nan nan nan nan nan nan nan nan nan nan nan
nan nan nan nan nan nan nan nan nan nan nan nan nan nan nan nan nan nan nan nan nan nan nan nan nan 47 nan nan nan nan nan nan nan nan nan nan nan nan nan nan nan nan nan
nan nan nan nan nan nan nan nan nan nan nan nan nan nan nan nan nan nan nan nan nan nan nan nan nan nan 47 50 nan nan nan nan nan nan nan nan nan nan nan nan nan nan nan
nan nan nan nan nan nan nan nan nan nan nan nan nan nan nan nan nan nan nan nan nan nan nan nan nan nan 45 45 48 50 nan nan nan nan nan nan nan nan nan nan nan nan nan
nan nan nan nan nan nan nan nan nan nan nan nan nan nan nan nan nan nan nan nan nan nan nan nan nan nan nan nan 49 49 54 nan nan nan nan nan nan nan nan nan nan nan nan
Wind_Direction
260 258 254 247 237 234 236 239 248 255 260 264 267 276 279 286 286 279 265 259 264 255 261 263 262 265 265 272 280 281 286 292 296 286 294 297 300 309 310 313 320 326 330
257 259 261 257 250 247 244 247 251 258 262 260 260 269 279 282 286 284 274 264 268 269 267 265 266 267 274 276 279 286 289 291 295 294 286 291 293 297 302 307 309 310 316
256 255 259 263 260 256 253 253 252 253 253 254 259 265 268 275 279 280 278 268 264 267 270 272 268 270 269 272 281 278 280 286 296 303 298 291 290 292 294 304 307 307 317
254 255 253 264 266 261 254 254 258 257 256 254 259 264 268 268 271 275 275 272 272 274 274 271 270 273 275 274 273 275 280 288 295 301 301 296 295 290 295 301 301 302 308
247 249 247 251 257 254 256 256 256 258 260 264 264 264 266 267 266 268 267 267 268 271 276 278 276 277 281 278 276 277 287 290 293 294 298 297 303 297 297 297 299 294 306
258 246 234 241 247 253 253 255 256 260 263 264 264 263 263 265 274 276 270 268 270 271 275 274 271 276 280 291 298 305 300 292 294 296 299 305 303 296 295 304 312 301 297
249 252 246 238 248 249 251 251 255 262 261 266 266 265 269 271 272 281 288 283 280 279 275 273 272 271 272 270 275 292 301 309 313 303 309 307 298 297 297 305 315 310 313
233 238 249 245 244 248 250 252 252 254 259 260 263 268 270 271 276 282 284 285 283 286 284 274 267 264 267 265 264 263 265 276 286 295 304 308 299 289 290 288 299 313 306
260 246 242 248 247 249 250 252 256 258 260 264 265 267 269 268 273 280 283 282 285 291 288 281 276 273 267 267 264 259 258 270 280 287 nan nan nan nan nan 290 295 297 295
254 258 228 246 251 251 247 252 252 254 259 261 264 268 272 276 280 287 285 282 289 285 283 283 279 276 282 275 nan nan nan nan nan nan nan nan nan nan 312 nan 294 292 288
259 261 257 251 248 252 245 247 243 254 259 261 260 259 260 259 261 260 268 277 273 273 277 276 265 268 nan nan nan nan nan nan nan nan nan nan nan 299 305 310 301 300 296
258 253 254 245 243 240 257 248 251 nan nan nan nan nan nan nan nan nan nan nan nan nan nan 252 nan nan nan nan nan nan nan nan nan nan nan nan nan 293 nan nan 269 287 298
259 265 251 253 nan nan nan 243 233 nan nan nan nan nan nan nan nan nan nan nan nan nan nan nan nan nan nan nan nan nan nan nan nan nan nan nan nan nan nan nan nan 286 282
263 nan 260 nan nan nan nan 243 255 nan 247 nan nan 243 260 nan 255 nan nan nan nan nan nan nan nan nan nan nan nan nan nan 259 nan nan nan nan nan nan nan nan nan 263 nan
nan 260 255 264 nan nan nan 245 253 253 252 252 260 252 219 172 196 nan nan 238 nan nan nan nan nan nan nan nan nan 241 nan nan nan nan nan nan nan nan nan nan nan nan nan
246 247 248 261 271 nan 279 266 229 239 219 222 250 251 264 273 275 nan nan nan 286 nan nan nan nan nan nan nan nan nan nan nan nan nan nan nan nan nan nan nan nan nan nan
238 241 nan nan nan nan nan nan nan nan nan 277 270 275 275 290 275 266 267 267 265 272 nan nan nan nan nan nan nan nan nan nan nan nan nan nan nan nan nan nan nan nan nan
239 245 241 240 nan nan nan nan nan nan 269 nan nan nan nan nan nan nan nan nan nan nan nan nan nan nan nan nan nan nan nan nan nan nan nan nan nan nan nan nan nan nan nan
nan nan nan nan nan nan nan nan nan nan nan nan nan nan nan nan nan nan nan nan nan nan nan nan nan nan nan nan nan nan nan nan nan nan nan nan nan nan nan nan nan nan nan
nan nan nan nan nan nan nan nan nan nan nan nan nan nan nan nan nan nan nan nan nan nan nan nan nan nan nan nan nan nan nan nan nan nan nan nan nan nan nan nan nan nan nan
nan nan nan nan nan nan nan nan nan nan nan nan nan nan nan nan nan nan nan nan nan nan nan nan nan nan nan nan nan nan nan nan nan nan nan nan nan nan nan nan nan nan nan
nan nan nan nan nan nan nan nan nan nan nan nan nan nan nan nan nan nan nan nan nan nan nan nan nan nan nan nan nan nan nan nan nan nan nan nan nan nan nan nan nan nan nan
nan nan nan nan nan nan nan nan nan nan nan nan nan nan nan nan nan nan nan nan nan nan nan nan nan 270 nan nan nan nan nan nan nan nan nan nan nan nan nan nan nan nan nan
nan nan nan nan nan nan nan nan nan nan nan nan nan nan nan nan nan nan nan nan nan nan nan nan nan nan 272 273 nan nan nan nan nan nan nan nan nan nan nan nan nan nan nan
nan nan nan nan nan nan nan nan nan nan nan nan nan nan nan nan nan nan nan nan nan nan nan nan nan nan 275 282 280 281 nan nan nan nan nan nan nan nan nan nan nan nan nan
nan nan nan nan nan nan nan nan nan nan nan nan nan nan nan nan nan nan nan nan nan nan nan nan nan nan nan nan 272 275 272 nan nan nan nan nan nan nan nan nan nan nan nan